Voltar ao catálogo

RASSVET-3 22

AtivoPO
NORAD 100088·PAYLOAD·🇷🇺 Russia

Lançado Jul 19, 2026 de Plesetsk Cosmodrome

Loading…

Próximas Passagens (próximas 24 horas)

TLE

AtualizadoSource: Space-Track

Época: Sep 14, 2026, 13:29 UTC

1 A0088U 26165F   26257.56190566 -.00275143  00000-0 -55265-2 0  9995
2 A0088  82.2997 168.1463 0007503 167.2989 192.8451 15.47632033  8924

Acompanhe RASSVET-3 22 em tempo real com AllMySat

Download on the App Store